EW6420 Weather Reports


Display with metric or nautical units.
time (UTC)temp
F
wind
direction
speed
MPH
gust
MPH
rain 1hr
in
rain 24hr
in
rain mn
in
humidity
%
barometer
mb
20260505230004 64 235 0.0 2.0 0.00 0.00 0.00 66 1015.1
20260505224502 64 235 0.0 3.0 0.00 0.00 0.00 66 1015.2
20260505223003 64 150 0.0 2.0 0.00 0.00 0.00 66 1015.5
20260505214501 61 160 0.0 2.0 0.00 0.00 0.00 71 1015.8
20260505213004 61 113 0.0 2.0 0.00 0.00 0.00 71 1015.9
20260505210006 60 172 0.0 2.0 0.00 0.00 0.00 72 1016.0
20260505204503 59 173 0.0 2.0 0.00 0.00 0.00 73 1016.1
20260505203003 59 185 0.0 2.0 0.00 0.00 0.00 74 1016.1
20260505201502 58 185 0.0 2.0 0.00 0.00 0.00 75 1016.0
20260505200004 58 185 0.0 2.0 0.00 0.00 0.00 75 1016.1
20260505194503 58 185 0.0 2.0 0.00 0.00 0.00 76 1016.1
20260505193004 57 185 0.0 2.0 0.00 0.00 0.00 77 1016.1
20260505191502 57 185 0.0 2.0 0.00 0.00 0.00 77 1016.1
20260505190005 57 83 0.0 2.0 0.00 0.00 0.00 77 1016.2
20260505184504 57 83 0.0 2.0 0.00 0.00 0.00 77 1016.2
20260505183005 56 83 0.0 2.0 0.00 0.00 0.00 78 1016.2
20260505180005 56 77 0.0 2.0 0.00 0.00 0.00 79 1016.1
20260505174503 56 77 0.0 2.0 0.00 0.00 0.00 78 1016.0
20260505171503 55 82 0.0 2.0 0.00 0.00 0.00 79 1015.8
20260505170005 55 82 0.0 2.0 0.00 0.00 0.00 79 1015.8
20260505164503 55 82 0.0 0.0 0.00 0.00 0.00 80 1015.8
20260505163005 55 82 0.0 1.0 0.00 0.00 0.00 80 1015.7
20260505151503 55 79 0.0 2.0 0.00 0.00 0.00 82 1015.3
20260505124501 54 177 0.0 0.0 0.00 0.00 0.00 83 1014.0
20260505123002 54 177 0.0 0.0 0.00 0.00 0.00 83 1014.0
20260505121502 54 177 0.0 0.0 0.00 0.00 0.00 83 1013.9
20260505120003 54 177 0.0 2.0 0.00 0.00 0.00 83 1013.9
20260505114502 54 177 0.0 0.0 0.00 0.00 0.00 83 1013.8
20260505111502 54 177 0.0 0.0 0.00 0.00 0.00 83 1013.8
20260505101503 54 177 0.0 2.0 0.00 0.00 0.00 84 1013.4
20260505100005 54 177 0.0 0.0 0.00 0.00 0.00 84 1013.4
20260505093001 54 81 0.0 0.0 0.00 0.00 0.00 85 1013.1
20260505091502 53 81 0.0 0.0 0.00 0.00 0.00 85 1013.1
20260505090002 53 81 0.0 0.0 0.00 0.00 0.00 85 1013.0
20260505084501 53 81 0.0 0.0 0.00 0.00 0.00 84 1012.9
20260505083001 54 81 0.0 0.0 0.00 0.00 0.00 83 1012.9
20260505081502 54 81 0.0 0.0 0.00 0.00 0.00 83 1012.8
20260505080005 54 81 0.0 0.0 0.00 0.00 0.00 82 1012.7
20260505074504 55 81 0.0 0.0 0.00 0.00 0.00 82 1012.6
20260505073005 55 81 0.0 0.0 0.00 0.00 0.00 81 1012.5
20260505071505 56 81 0.0 0.0 0.00 0.00 0.00 80 1012.3
20260505070009 56 81 0.0 0.0 0.00 0.00 0.00 79 1012.2
20260505064505 57 81 0.0 0.0 0.00 0.00 0.00 78 1012.1
20260505063004 57 81 0.0 0.0 0.00 0.00 0.00 78 1011.8
20260505053005 59 81 0.0 2.0 0.00 0.00 0.00 74 1011.4
20260505051505 60 81 0.0 0.0 0.00 0.00 0.00 73 1011.3
20260505041502 63 81 0.0 0.0 0.00 0.00 0.00 66 1010.6
20260505040006 64 81 0.0 1.0 0.00 0.00 0.00 64 1010.5
20260505034504 65 81 0.0 0.0 0.00 0.00 0.00 62 1010.3
20260505033006 67 81 0.0 2.0 0.00 0.00 0.00 61 1010.0
20260505030008 69 81 0.0 2.0 0.00 0.00 0.00 58 1009.6
20260505024502 69 81 0.0 2.0 0.00 0.00 0.00 56 1009.4
20260505023003 71 81 0.0 2.0 0.00 0.00 0.00 55 1009.3
20260505021505 72 81 0.0 2.0 0.00 0.00 0.00 53 1009.3
20260505020007 73 81 0.0 2.0 0.00 0.00 0.00 52 1009.2
20260505014509 73 81 0.0 2.0 0.00 0.00 0.00 51 1009.2
20260505013006 74 81 0.0 2.0 0.00 0.00 0.00 51 1009.1
20260505011509 75 81 0.0 2.0 0.00 0.00 0.00 50 1009.2
20260505010012 76 81 0.0 2.0 0.00 0.00 0.00 50 1009.2
20260505004504 77 81 0.0 2.0 0.00 0.00 0.00 49 1009.2
20260505003005 77 81 0.0 2.0 0.00 0.00 0.00 48 1009.1
20260505001509 77 81 0.0 2.0 0.00 0.00 0.00 48 1009.1
20260505000006 77 81 0.0 2.0 0.00 0.00 0.00 47 1009.0
20260504234508 77 92 0.0 2.0 0.00 0.00 0.00 48 1009.0
20260504233003 77 137 0.0 2.0 0.00 0.00 0.00 45 1009.1
20260504231504 77 142 0.0 2.0 0.00 0.00 0.00 44 1009.2